Tracking 19476 objects as of 17-Jan-2019
HD Live streaming from Space Station
objects crossing your sky now

FLOCK 2K 33

Track FLOCK 2K 33 now!
10-day predictions
FLOCK 2K 33 is classified as:


NORAD ID: 42879
Int'l Code: 2017-042BG
Perigee: 445.6 km
Apogee: 463.1 km
Inclination: 97.0 °
Period: 93.5 minutes
Semi major axis: 6825 km
RCS: Unknown
Launch date: July 14, 2017
Source: United States (US)
Launch site: TYURATAM MISSILE AND SPACE COMPLEX (TTMTR)
aabbcc
Your satellite tracking list
Your tracking list is empty




NASA's NSSDC Master Catalog

Two Line Element Set (TLE):
1 42879U 17042BG  19017.20299363  .00004749  00000-0  12210-3 0  9999
2 42879  96.9595 268.1981 0012832  50.7765 309.4619 15.39639548 84542
Source of the keplerian elements: AFSPC